Current weather by "City, St" or "zip code"  
 

Current Conditions: Beaufort Smith Field, NC

Fair


65.0 F

Last Updated on Oct 31 2020, 2:58 pm EDT
Humidity: 51%
Wind Speed: NE 12.7 G 19.6 mph
Barometer 30.38 in
Dewpoint: 46.0 F
Visibility: 10.00 mi
Precip: --
Heat Index: NA
Wind Chill: NA
Current conditions at:

Beaufort Smith Field, NC (KMRH)

Lat: 34.73259 Lon: 76.6566

Local Radar Image active severe weather and emergency alerts image image weather storm and storm spotter reports image weather observation monitoring service image
Local
Radar
Active
Alerts
Storm Reports Obs
Monitoring

Sign-up For Email & Text Message Weather Alert Notification Services



Advertise Here

Observation History for Beaufort Smith Field, NC


Time Wind
(mph)
Vis
(mi)
Weather Precip (in) Temperature (F) Relative
Humidity
Wind
Chill
(F)
Heat
Index
(F)
Pressure
Air Dwpt altimeter
(in)
sea level
(mb)
Rmks
2:58 pm EDT NE 12.7 G 19.6 10.00 Fair -- 65.0 46.0 51% NA NA 30.38 1028.9
1:58 pm EDT NE 11.5 G 21.9 10.00 Fair -- 65.0 48.0 54% NA NA 30.39 1029.1
12:58 pm EDT NE 12.7 G 21.9 10.00 Fair -- 65.0 48.9 56% NA NA 30.41 1029.7
11:58 am EDT NE 13.8 G 20.7 10.00 Fair -- 64.0 48.9 58% NA NA 30.42 1030.3
10:58 am EDT N 18.4 G 25.3 10.00 Fair -- 62.0 50.0 65% 60 NA 30.43 1030.3
9:58 am EDT N 12.7 10.00 Fair -- 60.0 51.1 72% 58 NA 30.41 1029.9
8:58 am EDT N 10.4 10.00 Fair -- 56.0 50.0 81% 53 NA 30.40 1029.4
7:58 am EDT N 8.1 10.00 Fair -- 52.0 46.0 80% 49 NA 30.37 1028.3
6:58 am EDT N 8.1 10.00 A Few Clouds -- 52.0 46.0 80% 49 NA 30.35 1027.6
5:58 am EDT N 6.9 10.00 Fair -- 52.0 46.0 80% 50 NA 30.33 1027.2
4:58 am EDT NE 6.9 10.00 Fair -- 53.0 46.9 80% 51 NA 30.30 1026.1
3:58 am EDT NE 8.1 10.00 Fair -- 55.0 46.0 72% 53 NA 30.29 1025.6
2:58 am EDT NE 9.2 10.00 Fair -- 55.0 46.0 72% 52 NA 30.27 1025.0
1:58 am EDT NE 9.2 10.00 Fair -- 55.0 46.9 74% 52 NA 30.25 1024.4
12:58 am EDT NE 9.2 10.00 Fair -- 55.0 48.0 77% 52 NA 30.23 1023.7
11:58 pm EDT NE 9.2 10.00 Fair -- 56.0 46.0 70% 54 NA 30.22 1023.2
10:58 pm EDT NE 6.9 10.00 Fair -- 56.0 46.0 70% 54 NA 30.20 1022.8
9:58 pm EDT NE 5.8 10.00 Fair -- 57.0 46.0 67% 56 NA 30.19 1022.2
8:58 pm EDT NE 6.9 10.00 Fair -- 58.0 46.9 67% 57 NA 30.16 1021.2
7:58 pm EDT NE 4.6 10.00 Fair -- 58.0 48.0 70% 58 NA 30.13 1020.2
6:58 pm EDT N 8.1 10.00 Fair -- 58.0 48.9 72% 56 NA 30.09 1018.9
5:58 pm EDT N 11.5 10.00 Fair -- 62.0 48.0 60% 61 NA 30.05 1017.5
4:58 pm EDT N 11.5 G 21.9 10.00 Fair -- 66.0 48.9 54% NA NA 30.01 1016.1
3:58 pm EDT N 20.7 G 29.9 10.00 Mostly Cloudy and Breezy -- 67.0 50.0 55% NA NA 29.98 1015.1

Regional Weather Observation


Beaufort Smith Field, NC (KMRH)

Fair
65.0 F

Piney Island, Bt-11 Bombing Range, NC (KNBT)

Fair
63.0 F

New Bern, Craven County Regional Airport, NC (KEWN)

Fair
64.0 F

Bogue Field Marine Corps Auxiliary Field, NC (KNJM)

NULL
66.0 F

MCAS New River, NC (KNCA)

Fair
66.0 F

Jacksonville, Albert J Ellis Airport, NC (KOAJ)

Fair
65.0 F